TimeMST,TemperatureF,Dew PointF,Humidity,Sea Level PressureIn,VisibilityMPH,Wind Direction,Wind SpeedMPH,Gust SpeedMPH,PrecipitationIn,Events,Conditions,WindDirDegrees,DateUTC
12:53 AM,32.0,18.0,56,29.88,10.0,WNW,10.4,-,N/A,,Clear,290,2013-01-26 07:53:00
1:53 AM,32.0,18.0,56,29.88,10.0,NW,6.9,-,N/A,,Clear,310,2013-01-26 08:53:00
2:53 AM,36.0,19.0,50,29.85,10.0,NNE,4.6,-,N/A,,Clear,20,2013-01-26 09:53:00
3:53 AM,30.0,19.0,64,29.89,10.0,West,4.6,-,N/A,,Clear,260,2013-01-26 10:53:00
4:53 AM,27.0,18.0,69,29.92,10.0,SSW,6.9,-,N/A,,Clear,200,2013-01-26 11:53:00
5:53 AM,32.0,18.0,56,29.91,10.0,WSW,5.8,-,N/A,,Clear,250,2013-01-26 12:53:00
6:53 AM,34.0,19.0,54,29.93,10.0,SW,3.5,-,N/A,,Clear,220,2013-01-26 13:53:00
7:53 AM,34.0,19.9,56,29.92,10.0,SW,9.2,-,N/A,,Scattered Clouds,230,2013-01-26 14:53:00
8:53 AM,41.0,21.9,47,29.91,10.0,South,6.9,-,N/A,,Clear,190,2013-01-26 15:53:00
9:53 AM,46.0,24.1,42,29.88,10.0,SSE,5.8,-,N/A,,Clear,160,2013-01-26 16:53:00
10:53 AM,50.0,23.0,35,29.89,10.0,SSE,11.5,-,N/A,,Clear,150,2013-01-26 17:53:00
11:53 AM,51.1,23.0,33,29.86,10.0,SSE,11.5,-,N/A,,Partly Cloudy,150,2013-01-26 18:53:00
12:53 PM,51.1,23.0,33,29.83,10.0,SE,10.4,-,N/A,,Clear,130,2013-01-26 19:53:00
1:53 PM,51.1,23.0,33,29.80,10.0,SE,9.2,-,N/A,,Clear,140,2013-01-26 20:53:00
2:53 PM,50.0,24.1,36,29.78,10.0,SE,5.8,-,N/A,,Clear,130,2013-01-26 21:53:00
3:53 PM,48.9,26.1,41,29.79,10.0,SE,4.6,-,N/A,,Clear,130,2013-01-26 22:53:00
4:53 PM,44.1,25.0,47,29.80,10.0,South,3.5,-,N/A,,Clear,170,2013-01-26 23:53:00
5:53 PM,39.0,24.1,55,29.79,10.0,West,5.8,-,N/A,,Clear,260,2013-01-27 00:53:00
6:53 PM,36.0,24.1,62,29.78,10.0,WSW,8.1,-,N/A,,Clear,240,2013-01-27 01:53:00
7:53 PM,37.9,24.1,57,29.76,10.0,WSW,4.6,-,N/A,,Clear,250,2013-01-27 02:53:00
8:53 PM,37.0,23.0,57,29.72,10.0,Calm,Calm,-,N/A,,Clear,0,2013-01-27 03:53:00
9:53 PM,35.1,23.0,61,29.70,10.0,West,4.6,-,N/A,,Clear,260,2013-01-27 04:53:00
10:53 PM,35.1,23.0,61,29.67,10.0,WSW,3.5,-,N/A,,Clear,250,2013-01-27 05:53:00
11:53 PM,34.0,21.9,61,29.66,10.0,South,3.5,-,N/A,,Clear,180,2013-01-27 06:53:00